• In Sweden
  • List of Countries
  • For 7 days
  • Water Temperature
  • Satellite Maps
  • Weather Map
  • Weather Widgets
  • user-avatar
    Login

    Hourly Weather Susoliha

    Today, 22 July, Sunday

    Time Temperature Precipitation Wind Pressure Humidity
    00:00 +18°C° 0 mm 3 mps 745 mmHg 96%
    01:00 +18°C° 0 mm 3 mps 745 mmHg 97%
    02:00 +18°C° 0 mm 2 mps 745 mmHg 98%
    03:00 +18°C° 0 mm 2 mps 745 mmHg 97%
    04:00 +18°C° 0 mm 3 mps 745 mmHg 97%
    05:00 +18°C° 0 mm 3 mps 746 mmHg 96%
    06:00 +19°C° 0 mm 3 mps 746 mmHg 93%
    07:00 +20°C° 0 mm 3 mps 746 mmHg 90%
    08:00 +20°C° 0 mm 3 mps 746 mmHg 88%
    09:00 +21°C° 0 mm 4 mps 746 mmHg 85%
    10:00 +21°C° 0 mm 4 mps 746 mmHg 82%
    11:00 +22°C° 0 mm 4 mps 746 mmHg 80%
    12:00 +22°C° 0 mm 4 mps 746 mmHg 78%
    13:00 +23°C° 0 mm 4 mps 746 mmHg 77%
    14:00 +23°C° 0 mm 4 mps 746 mmHg 75%
    15:00 +23°C° 0.1 mm 4 mps 746 mmHg 76%
    16:00 +24°C° 0.1 mm 3 mps 746 mmHg 77%
    17:00 +24°C° 0.1 mm 3 mps 746 mmHg 78%
    18:00 +23°C° 0.1 mm 2 mps 746 mmHg 82%
    19:00 +21°C° 0.1 mm 2 mps 746 mmHg 86%
    20:00 +20°C° 0.1 mm 2 mps 746 mmHg 90%
    21:00 +19°C° 0 mm 2 mps 746 mmHg 92%
    22:00 +19°C° 0 mm 2 mps 746 mmHg 94%
    23:00 +18°C° 0 mm 2 mps 746 mmHg 96%

    Tomorrow, 23 July, Monday

    Time Temperature Precipitation Wind Pressure Humidity
    00:00 +18°C° 0 mm 2 mps 747 mmHg 96%
    01:00 +17°C° 0 mm 2 mps 747 mmHg 97%
    02:00 +17°C° 0 mm 2 mps 747 mmHg 97%
    03:00 +17°C° 0 mm 3 mps 747 mmHg 96%
    04:00 +17°C° 0 mm 3 mps 747 mmHg 96%
    05:00 +18°C° 0 mm 3 mps 747 mmHg 95%
    06:00 +18°C° 0 mm 3 mps 747 mmHg 92%
    07:00 +19°C° 0 mm 4 mps 747 mmHg 88%
    08:00 +20°C° 0 mm 4 mps 747 mmHg 85%
    09:00 +20°C° 0 mm 4 mps 747 mmHg 81%
    10:00 +21°C° 0 mm 4 mps 748 mmHg 77%
    11:00 +21°C° 0 mm 4 mps 748 mmHg 73%
    12:00 +22°C° 0 mm 4 mps 748 mmHg 69%
    13:00 +23°C° 0 mm 5 mps 747 mmHg 64%
    14:00 +25°C° 0 mm 5 mps 747 mmHg 60%
    15:00 +25°C° 0 mm 4 mps 747 mmHg 62%
    16:00 +23°C° 0 mm 4 mps 747 mmHg 64%
    17:00 +23°C° 0 mm 4 mps 747 mmHg 67%
    18:00 +22°C° 0 mm 3 mps 748 mmHg 71%
    19:00 +20°C° 0 mm 3 mps 748 mmHg 75%
    20:00 +19°C° 0 mm 3 mps 748 mmHg 80%
    21:00 +18°C° 0 mm 3 mps 748 mmHg 83%
    22:00 +17°C° 0 mm 3 mps 748 mmHg 87%
    23:00 +16°C° 0 mm 3 mps 748 mmHg 90%

    Day after tomorrow, 24 July, Tuesday

    Time Temperature Precipitation Wind Pressure Humidity
    00:00 +16°C° 0 mm 3 mps 748 mmHg 92%
    01:00 +14°C° 0 mm 3 mps 748 mmHg 93%
    02:00 +14°C° 0 mm 3 mps 748 mmHg 94%
    03:00 +14°C° 0 mm 3 mps 748 mmHg 94%
    04:00 +16°C° 0 mm 3 mps 748 mmHg 93%
    05:00 +16°C° 0 mm 3 mps 748 mmHg 92%
    06:00 +17°C° 0.1 mm 3 mps 748 mmHg 92%
    07:00 +17°C° 0.1 mm 3 mps 748 mmHg 92%
    08:00 +17°C° 0.1 mm 4 mps 748 mmHg 91%
    09:00 +18°C° 0.5 mm 4 mps 749 mmHg 91%
    10:00 +19°C° 0.5 mm 4 mps 749 mmHg 91%
    11:00 +19°C° 0.5 mm 4 mps 749 mmHg 90%
    12:00 +20°C° 0.2 mm 4 mps 749 mmHg 89%
    13:00 +20°C° 0.2 mm 4 mps 749 mmHg 88%
    14:00 +21°C° 0.2 mm 4 mps 749 mmHg 87%
    15:00 +22°C° 0 mm 3 mps 749 mmHg 84%
    16:00 +24°C° 0 mm 3 mps 749 mmHg 81%
    17:00 +25°C° 0 mm 3 mps 749 mmHg 78%
    18:00 +24°C° 0 mm 3 mps 749 mmHg 82%
    19:00 +23°C° 0 mm 2 mps 749 mmHg 87%
    20:00 +20°C° 0 mm 2 mps 749 mmHg 92%
    21:00 +20°C° 0 mm 2 mps 749 mmHg 93%
    22:00 +20°C° 0 mm 2 mps 749 mmHg 93%
    23:00 +19°C° 0 mm 3 mps 749 mmHg 94%

    25 July, Wednesday

    Time Temperature Precipitation Wind Pressure Humidity
    00:00 +19°C° 0.4 mm 2 mps 750 mmHg 95%
    01:00 +19°C° 0.4 mm 2 mps 750 mmHg 96%
    02:00 +19°C° 0.4 mm 2 mps 750 mmHg 97%
    03:00 +19°C° 0.5 mm 2 mps 750 mmHg 97%
    04:00 +19°C° 0.5 mm 2 mps 750 mmHg 96%
    05:00 +19°C° 0.5 mm 2 mps 751 mmHg 96%
    06:00 +20°C° 0 mm 3 mps 751 mmHg 93%
    07:00 +21°C° 0 mm 3 mps 751 mmHg 91%
    08:00 +22°C° 0 mm 3 mps 751 mmHg 88%
    09:00 +25°C° 0 mm 3 mps 751 mmHg 77%
    10:00 +27°C° 0 mm 4 mps 752 mmHg 65%
    11:00 +29°C° 0 mm 4 mps 752 mmHg 54%
    12:00 +29°C° 0 mm 4 mps 752 mmHg 52%
    13:00 +30°C° 0 mm 4 mps 751 mmHg 49%
    14:00 +30°C° 0 mm 4 mps 751 mmHg 47%
    15:00 +30°C° 0 mm 4 mps 751 mmHg 50%
    16:00 +29°C° 0 mm 3 mps 751 mmHg 54%
    17:00 +29°C° 0 mm 3 mps 751 mmHg 57%
    18:00 +27°C° 0 mm 3 mps 751 mmHg 63%
    19:00 +24°C° 0 mm 2 mps 752 mmHg 69%
    20:00 +21°C° 0 mm 2 mps 752 mmHg 75%
    21:00 +21°C° 0 mm 2 mps 752 mmHg 77%
    22:00 +20°C° 0 mm 2 mps 752 mmHg 78%
    23:00 +19°C° 0 mm 2 mps 752 mmHg 80%

    26 July, Thursday

    Time Temperature Precipitation Wind Pressure Humidity
    00:00 +19°C° 0 mm 2 mps 752 mmHg 81%
    01:00 +18°C° 0 mm 2 mps 753 mmHg 82%
    02:00 +18°C° 0 mm 2 mps 753 mmHg 82%
    03:00 +18°C° 0 mm 2 mps 753 mmHg 83%
    04:00 +18°C° 0 mm 2 mps 753 mmHg 83%
    05:00 +19°C° 0 mm 2 mps 753 mmHg 84%
    06:00 +21°C° 0 mm 3 mps 754 mmHg 79%
    07:00 +24°C° 0 mm 3 mps 754 mmHg 75%
    08:00 +26°C° 0 mm 3 mps 754 mmHg 70%
    09:00 +27°C° 0 mm 3 mps 754 mmHg 63%
    10:00 +29°C° 0 mm 4 mps 754 mmHg 55%
    11:00 +30°C° 0 mm 4 mps 754 mmHg 48%
    12:00 +32°C° 0 mm 4 mps 754 mmHg 47%
    13:00 +32°C° 0 mm 4 mps 754 mmHg 47%
    14:00 +32°C° 0 mm 4 mps 754 mmHg 46%
    15:00 +30°C° 0 mm 3 mps 754 mmHg 51%
    16:00 +29°C° 0 mm 3 mps 754 mmHg 56%
    17:00 +29°C° 0 mm 3 mps 754 mmHg 61%
    18:00 +27°C° 0 mm 2 mps 754 mmHg 65%
    19:00 +25°C° 0 mm 2 mps 754 mmHg 70%
    20:00 +24°C° 0 mm 2 mps 754 mmHg 75%
    21:00 +23°C° 0 mm 2 mps 754 mmHg 76%
    22:00 +23°C° 0 mm 2 mps 755 mmHg 78%
    23:00 +21°C° 0 mm 2 mps 755 mmHg 79%

    27 July, Friday

    Time Temperature Precipitation Wind Pressure Humidity
    00:00 +21°C° 0.1 mm 2 mps 755 mmHg 82%
    01:00 +20°C° 0.1 mm 2 mps 755 mmHg 84%
    02:00 +20°C° 0.1 mm 2 mps 755 mmHg 86%
    03:00 +20°C° 0.1 mm 2 mps 755 mmHg 87%
    04:00 +20°C° 0.1 mm 2 mps 755 mmHg 88%
    05:00 +20°C° 0.1 mm 2 mps 756 mmHg 88%
    06:00 +21°C° 0.1 mm 2 mps 756 mmHg 84%
    07:00 +24°C° 0.1 mm 2 mps 756 mmHg 79%
    08:00 +26°C° 0.1 mm 2 mps 756 mmHg 75%
    09:00 +27°C° 0.2 mm 3 mps 756 mmHg 68%
    10:00 +28°C° 0.2 mm 3 mps 756 mmHg 62%
    11:00 +30°C° 0.2 mm 3 mps 756 mmHg 56%
    12:00 +30°C° 0 mm 3 mps 756 mmHg 54%
    13:00 +31°C° 0 mm 3 mps 756 mmHg 53%
    14:00 +31°C° 0 mm 3 mps 755 mmHg 51%
    15:00 +30°C° 0 mm 3 mps 755 mmHg 54%
    16:00 +30°C° 0 mm 3 mps 755 mmHg 57%
    17:00 +29°C° 0 mm 2 mps 755 mmHg 60%
    18:00 +27°C° 0 mm 2 mps 756 mmHg 66%
    19:00 +26°C° 0 mm 2 mps 756 mmHg 72%
    20:00 +24°C° 0 mm 2 mps 756 mmHg 78%
    21:00 +23°C° 0 mm 2 mps 756 mmHg 79%
    22:00 +21°C° 0 mm 2 mps 756 mmHg 81%
    23:00 +21°C° 0 mm 2 mps 756 mmHg 83%
    Show more